Content
SEND FEEDBACK

Daily
Averages
Monthly
Summary
United States of America

COLDWATER, TENNESSEE


Home > North America > United States > Tennessee
Elevation: 65 feet     Latitude: 35 05N     Longitude: 086 44W

WEATHER
 
SELECT A DAY
Number of Records: 303,942;   Date Range: 4/22/02 - 9/29/14
 
SHARE

PRINT THIS DATA

[ ← Previous Day ]
WEATHER ALMANAC - AUGUST 15, 2014
[ Next Day → ]
[ °C ]   °F
Weather ElementAverageHighLow
Temperature71.6 °F87.8 °F (10:55 am)57.2 °F (4:55 am)
Dewpoint55.5 °F62.6 °F (12:15 am)48.2 °F (3:35 pm)
Humidity62.8 %88 % (12:35 am)27 % (4:15 pm)
Barometer30.04 in30.09 in (8:35 am)30.00 in (4:35 pm)
Wind Speed0.6 mph5.8 mph (10:35 am)
Weather ElementAverage
Visibility9.2 mi
Wind DirectionNNE (16.8 °)

Weather ElementTotal
Precipitation---
Cooling Degree Days7.5 (Base 65)
Growing Degree Days22.5 (Base 50)
Averaged from 69 records on August 15, 2014
WEATHER CONDITIONS BREAKOUT
WIND DIRECTION BREAKOUT
WEATHER BY HOUR - AUGUST 15, 2014
[ °C ]   °F
Local TimeTemperatureDewpointHumidityBarometerVisibilityWind DirectionWind SpeedGust SpeedPrecipitationEventsConditions
12:15 AM60.8 °F57.2 °F88 %30.04 in10.0 miCalmClear
12:35 AM60.8 °F57.2 °F88 %30.03 in10.0 miCalmClear
12:55 AM60.8 °F57.2 °F88 %30.03 in10.0 miCalmClear
1:15 AM60.8 °F57.2 °F88 %30.04 in7.0 miCalmClear
1:35 AM60.8 °F55.4 °F82 %30.03 in7.0 miCalmClear
1:55 AM59.0 °F55.4 °F88 %30.03 in7.0 miCalmClear
2:15 AM59.0 °F55.4 °F88 %30.03 in10.0 miCalmClear
2:35 AM59.0 °F55.4 °F88 %30.03 in7.0 miCalmClear
2:55 AM59.0 °F55.4 °F88 %30.03 in10.0 miCalmClear
3:15 AM59.0 °F55.4 °F88 %30.03 in10.0 miCalmClear
3:35 AM59.0 °F53.6 °F82 %30.03 in10.0 miCalmClear
3:55 AM59.0 °F53.6 °F82 %30.04 in4.0 miCalmClear
4:15 AM59.0 °F53.6 °F82 %30.04 in5.0 miCalmScattered Clouds
4:35 AM59.0 °F53.6 °F82 %30.04 in5.0 miCalmClear
4:55 AM57.2 °F53.6 °F88 %30.04 in5.0 miCalmClear
5:35 AM57.2 °F53.6 °F88 %30.05 in7.0 miCalmScattered Clouds
5:55 AM57.2 °F53.6 °F88 %30.06 in7.0 miCalmClear
6:15 AM57.2 °F53.6 °F88 %30.06 in7.0 miCalmScattered Clouds
6:35 AM59.0 °F53.6 °F82 %30.06 in7.0 miCalmMostly Cloudy
6:55 AM59.0 °F53.6 °F82 %30.07 in1.2 miCalmScattered Clouds
7:15 AM59.0 °F55.4 °F88 %30.07 in7.0 miCalmClear
7:35 AM60.8 °F57.2 °F88 %30.07 in10.0 miCalmClear
7:55 AM62.6 °F59.0 °F88 %30.08 in10.0 miCalmClear
8:15 AM64.4 °F59.0 °F83 %30.08 in10.0 miCalmClear
8:35 AM68.0 °F59.0 °F73 %30.08 in10.0 miCalmClear
8:55 AM69.8 °F60.8 °F73 %30.09 in10.0 miCalmClear
9:15 AM73.4 °F59.0 °F61 %30.09 in10.0 miCalmClear
9:35 AM75.2 °F59.0 °F57 %30.09 in10.0 miCalmClear
9:55 AM77.0 °F57.2 °F50 %30.09 in10.0 miCalmClear
10:15 AM78.8 °F57.2 °F47 %30.09 in10.0 miCalmClear
10:35 AM78.8 °F55.4 °F44 %30.09 in10.0 miNorth (350°)3.5 mphClear
10:55 AM80.6 °F53.6 °F39 %30.09 in10.0 miCalmClear
11:15 AM82.4 °F51.8 °F35 %30.08 in10.0 miCalmClear
11:35 AM82.4 °F51.8 °F35 %30.07 in10.0 miCalmClear
11:55 AM82.4 °F53.6 °F37 %30.06 in10.0 miNW (320°)5.8 mphScattered Clouds
12:15 PM80.6 °F53.6 °F39 %30.06 in10.0 miNE (50°)4.6 mphScattered Clouds
12:35 PM82.4 °F51.8 °F35 %30.05 in10.0 miCalmClear
12:55 PM84.2 °F50.0 °F30 %30.04 in10.0 miESE (120°)3.5 mphClear
1:15 PM86.0 °F51.8 °F31 %30.04 in10.0 miEast (80°)4.6 mphClear
1:35 PM86.0 °F50.0 °F29 %30.04 in10.0 miCalmScattered Clouds
1:55 PM86.0 °F50.0 °F29 %30.04 in10.0 miCalmScattered Clouds
2:15 PM86.0 °F50.0 °F29 %30.03 in10.0 miNNE (20°)4.6 mphClear
2:35 PM86.0 °F48.2 °F27 %30.02 in10.0 miCalmClear
2:55 PM87.8 °F50.0 °F27 %30.02 in10.0 miNNE (20°)4.6 mphClear
3:15 PM86.0 °F50.0 °F29 %30.01 in10.0 miCalmScattered Clouds
3:35 PM86.0 °F50.0 °F29 %30.01 in10.0 miEast (80°)3.5 mphClear
3:55 PM86.0 °F50.0 °F29 %30.01 in10.0 miESE (120°)5.8 mphScattered Clouds
4:15 PM82.4 °F53.6 °F37 %30.01 in10.0 miCalmScattered Clouds
4:35 PM84.2 °F51.8 °F33 %30.01 in10.0 miCalmScattered Clouds
4:55 PM86.0 °F50.0 °F29 %30.00 in10.0 miCalmClear
5:15 PM86.0 °F50.0 °F29 %30.00 in10.0 miCalmClear
5:35 PM84.2 °F53.6 °F35 %30.00 in10.0 miCalmClear
5:55 PM86.0 °F48.2 °F27 %30.00 in10.0 miCalmClear
6:15 PM82.4 °F55.4 °F39 %30.00 in10.0 miCalmClear
6:35 PM80.6 °F60.8 °F51 %30.00 in10.0 miCalmClear
6:55 PM77.0 °F60.8 °F57 %30.01 in10.0 miCalmClear
7:15 PM75.2 °F60.8 °F61 %30.01 in10.0 miCalmClear
7:35 PM73.4 °F62.6 °F69 %30.00 in10.0 miCalmClear
7:55 PM71.6 °F60.8 °F69 %30.00 in10.0 miCalmClear
8:15 PM71.6 °F60.8 °F69 %30.01 in10.0 miCalmClear
8:35 PM69.8 °F62.6 °F78 %30.01 in10.0 miCalmClear
9:15 PM68.0 °F60.8 °F78 %30.02 in10.0 miCalmClear
9:35 PM68.0 °F62.6 °F83 %30.02 in10.0 miCalmClear
9:55 PM68.0 °F60.8 °F78 %30.02 in10.0 miCalmClear
10:15 PM66.2 °F60.8 °F83 %30.02 in10.0 miCalmClear
10:35 PM66.2 °F60.8 °F83 %30.02 in10.0 miCalmClear
11:15 PM64.4 °F60.8 °F88 %30.01 in10.0 miCalmClear
11:35 PM64.4 °F60.8 °F88 %30.02 in10.0 miCalmClear
11:55 PM64.4 °F60.8 °F88 %30.01 in10.0 miCalmClear
Hourly data recorded from KMDQ, located miles away from Coldwater, Tennessee







STORIES FROM OUR PARTNERS